Wind_Speed
17 17 16 16 16 16 16 15 15 15 15 15 14 14 14 13 13 13 13 12 12 12 12 12 11 11 11 11 11 12 11 11 10 10 9 9 8 8 7 7 7 7 7
18 18 18 18 18 18 18 17 17 17 17 17 16 16 16 16 15 15 15 14 14 14 14 14 14 13 12 12 11 12 12 12 12 12 11 11 10 9 9 9 8 8 8
19 20 20 20 20 19 19 19 19 19 19 18 18 18 18 17 17 17 17 17 17 16 16 16 16 15 15 14 14 13 13 13 13 13 13 13 12 12 11 10 10 10 10
20 20 21 21 21 21 21 21 21 21 21 20 20 20 20 19 19 19 19 19 19 19 18 18 18 17 17 17 16 16 15 15 15 15 15 14 14 14 13 12 12 12 11
23 23 22 22 23 23 23 23 23 23 22 22 22 22 21 21 21 21 20 20 20 20 20 20 20 20 20 19 18 18 18 17 17 16 16 16 16 16 15 14 14 14 13
24 25 24 25 25 24 24 24 24 24 24 24 24 24 23 23 23 23 22 23 22 22 22 22 22 22 21 21 20 20 19 19 19 18 18 17 17 17 17 16 16 15 15
25 26 26 27 27 27 27 26 26 26 25 26 26 26 25 25 25 25 24 24 24 24 24 24 23 23 23 22 22 21 21 21 21 20 19 19 19 19 18 17 17 17 16
26 27 27 28 28 28 28 28 28 27 27 27 27 27 27 27 27 26 26 26 25 26 26 26 26 25 25 25 24 23 23 23 23 22 21 21 20 20 19 19 18 18 18
27 28 28 28 29 30 29 30 30 29 29 29 29 29 29 29 29 28 28 27 27 27 28 28 27 27 27 26 25 24 24 24 24 24 23 23 23 22 22 21 20 19 19
29 30 30 30 31 31 31 31 31 31 31 31 31 31 31 31 31 30 30 29 30 30 30 30 29 29 28 28 28 26 25 25 25 25 25 25 24 24 24 23 22 21 21
30 31 31 31 32 32 33 33 32 32 32 32 32 32 32 32 32 32 32 31 32 31 31 31 31 30 30 30 30 29 28 27 27 26 27 26 26 25 25 25 24 23 22
31 32 33 33 34 34 34 33 33 33 33 33 33 32 33 32 33 33 33 33 33 33 32 32 32 32 32 31 31 31 30 29 28 28 28 28 27 27 26 26 26 25 24
32 33 34 34 35 35 35 34 35 35 34 35 34 34 34 33 33 33 33 34 34 33 33 33 34 34 34 33 33 32 31 31 31 30 30 30 29 29 28 28 28 27 27
33 33 34 35 35 36 36 36 35 36 36 35 35 34 34 33 33 34 33 33 34 34 34 35 35 34 35 35 35 34 34 33 32 32 32 32 31 31 30 30 30 29 29
34 34 34 35 36 36 36 36 36 36 36 36 35 35 34 34 34 35 36 35 35 35 35 36 37 36 36 36 36 36 35 35 34 34 33 32 32 32 32 32 31 31 30
36 35 35 35 35 36 37 38 38 38 38 37 37 37 36 36 35 36 36 37 37 37 37 38 38 38 38 37 38 37 37 36 36 35 35 34 33 34 34 34 33 33 32
38 37 37 38 37 37 37 38 39 39 39 39 39 39 38 38 37 37 37 38 38 39 39 39 39 39 40 40 39 38 38 38 38 37 37 36 36 36 36 36 35 35 35
39 39 39 39 39 39 39 39 40 40 39 40 41 41 41 40 40 39 39 39 39 39 39 39 40 40 40 41 41 40 40 40 40 39 39 39 39 39 38 37 37 37 37
41 41 41 41 42 42 41 41 41 41 42 41 41 41 41 41 41 41 41 40 41 41 41 41 40 40 40 41 42 42 42 42 41 41 41 41 41 41 40 40 39 39 39
42 41 42 43 43 43 43 42 43 43 43 43 43 43 43 43 42 42 42 41 42 43 44 43 42 41 41 42 42 42 43 43 43 42 42 43 43 43 42 42 42 41 40
42 42 43 43 43 44 44 44 44 44 44 44 44 45 45 45 44 44 44 44 43 44 44 45 44 44 43 44 44 43 43 44 44 44 43 43 44 44 44 44 44 43 42
43 43 43 43 44 45 45 46 45 45 46 45 45 45 46 46 45 46 46 45 45 45 45 45 44 45 45 45 46 45 45 45 46 45 45 45 45 45 45 45 45 44 43
43 43 44 44 45 45 46 46 46 46 47 47 46 46 46 47 47 48 48 47 47 47 47 47 46 46 46 46 47 47 47 46 47 46 47 47 46 46 47 47 47 47 47
43 44 44 45 45 46 46 46 47 47 48 48 47 47 48 48 48 49 49 49 48 48 48 49 49 48 48 49 49 49 49 48 48 47 47 48 48 49 49 49 49 49 49
43 44 45 45 45 46 47 47 47 48 49 49 49 49 49 49 49 49 49 49 49 50 50 50 51 51 51 50 50 50 49 49 49 49 49 49 49 50 52 52 51 51 51
44 44 45 46 46 47 48 48 48 49 50 50 50 50 50 50 50 50 50 50 50 51 51 52 52 52 53 52 52 52 51 51 51 51 50 49 50 51 52 53 52 53 53
Wind_Direction
250 252 253 253 252 252 253 254 254 256 257 258 259 258 257 258 259 262 262 260 259 260 261 261 259 259 260 259 259 256 255 254 253 253 252 250 250 250 249 248 249 247 244
252 253 254 254 254 255 256 257 257 257 258 258 259 259 258 258 259 259 260 259 258 259 260 260 260 260 261 261 261 259 255 255 253 252 254 253 252 253 251 251 250 249 248
253 253 254 255 256 257 258 259 259 259 259 259 258 259 259 260 259 259 259 259 257 258 259 259 260 261 261 261 261 262 259 255 254 253 254 252 252 253 253 253 252 251 251
255 254 255 256 258 258 259 260 261 260 260 259 259 259 258 260 260 260 260 260 259 258 257 257 258 259 259 260 259 260 260 259 257 255 254 252 253 253 253 253 253 252 252
257 256 256 257 258 259 259 259 260 260 261 262 261 261 260 260 261 261 261 261 260 259 257 256 257 257 257 258 258 258 258 259 258 257 254 253 252 252 252 253 252 252 252
258 258 257 257 259 260 260 259 260 260 260 261 261 261 261 261 262 262 261 260 260 260 258 257 257 258 257 257 257 258 257 257 256 256 254 253 251 252 252 252 253 253 253
259 258 258 258 259 260 259 259 259 259 260 260 260 260 260 261 262 263 263 261 260 259 259 258 258 258 258 258 258 258 257 255 254 254 254 252 250 250 251 252 251 252 252
259 258 258 258 259 261 262 261 259 259 259 258 258 259 259 260 260 261 261 260 260 259 258 257 257 257 258 258 258 256 256 255 253 254 252 253 251 249 249 250 251 250 250
259 259 259 259 260 261 262 261 261 261 260 259 259 259 259 259 259 259 260 260 259 259 258 257 257 257 257 257 257 256 255 254 252 252 252 253 253 251 251 250 251 250 251
263 262 261 261 261 261 262 261 261 261 261 261 260 259 258 258 258 259 259 259 258 258 258 257 257 257 257 257 257 256 256 254 253 252 251 251 251 251 251 251 250 251 251
263 263 263 262 263 263 262 262 261 260 260 261 261 260 260 259 258 258 258 258 258 257 257 257 256 256 256 257 257 257 256 255 254 254 252 250 250 250 250 249 250 251 252
263 264 265 265 264 263 262 261 261 260 260 261 260 260 261 261 261 258 258 258 258 257 257 256 256 255 255 256 256 257 256 256 256 254 254 252 250 250 250 249 250 250 251
264 265 266 265 264 262 261 260 260 260 260 260 260 261 261 262 261 259 258 258 257 256 256 256 256 255 255 255 255 255 256 256 256 254 254 253 251 250 250 249 250 250 250
268 268 267 265 263 262 261 261 260 260 259 259 259 260 261 261 260 259 258 257 257 257 257 256 256 255 255 254 254 255 255 255 256 254 254 253 252 251 251 250 250 250 250
270 269 269 268 265 263 262 261 261 261 261 259 259 259 260 260 260 260 259 258 257 257 257 257 257 256 255 255 255 254 255 254 255 254 253 253 252 251 251 250 250 249 249
269 269 268 268 266 265 263 262 262 261 260 260 259 259 260 260 261 260 259 259 258 258 258 258 258 255 255 255 255 254 253 253 253 253 252 253 253 251 250 250 250 250 250
269 268 267 266 265 265 264 263 262 262 262 261 260 259 260 260 260 260 260 260 259 259 259 258 257 256 256 255 254 253 253 253 253 253 253 252 252 251 251 250 249 249 249
268 267 266 265 265 265 264 263 262 261 261 261 260 260 261 261 260 260 260 260 260 259 258 258 257 257 256 255 254 253 253 253 254 254 253 252 252 251 251 251 250 249 249
269 268 266 265 265 265 264 262 261 261 261 261 260 260 261 261 261 261 261 260 259 259 259 258 257 257 256 255 255 254 253 253 254 254 254 252 252 252 251 250 250 249 248
269 268 267 265 265 264 262 261 261 261 260 260 259 260 261 262 262 262 261 261 260 260 260 261 259 257 256 256 256 255 254 253 254 254 254 252 252 251 250 249 249 249 248
270 268 267 266 264 263 262 261 260 260 260 260 260 260 261 261 262 262 262 262 262 261 261 260 259 258 257 256 256 255 254 254 254 253 253 252 252 251 250 249 249 249 249
271 269 267 266 264 263 262 262 261 260 259 260 260 261 261 261 261 261 261 262 262 261 260 259 259 258 257 257 256 255 255 254 254 253 252 252 252 251 250 248 248 248 248
271 269 268 266 264 262 262 262 262 261 260 260 260 261 262 262 261 261 261 262 262 261 260 259 258 258 258 258 257 257 256 255 254 253 252 252 252 251 250 249 248 248 248
271 270 268 266 264 263 262 262 262 262 261 260 260 261 261 262 263 262 262 261 262 261 260 260 259 258 258 258 259 258 257 255 255 254 253 253 253 252 251 251 250 250 249
271 270 269 267 265 264 263 263 262 262 261 261 260 261 261 261 263 263 262 262 261 260 260 260 259 259 259 259 259 258 258 257 257 256 255 254 254 253 252 252 252 252 251
272 270 269 267 266 265 264 264 263 262 262 262 261 261 262 262 262 262 262 262 261 261 260 259 259 259 259 259 259 258 258 258 258 257 256 256 255 254 253 253 252 252 252
Height
5828 5829 5830 5831 5831 5832 5833 5834 5835 5835 5836 5837 5837 5838 5838 5839 5840 5841 5841 5842 5843 5844 5845 5845 5846 5847 5847 5848 5849 5850 5851 5852 5853 5853 5854 5855 5855 5856 5857 5858 5858 5859 5859
5825 5826 5827 5828 5829 5829 5830 5831 5832 5832 5833 5834 5834 5835 5836 5837 5837 5838 5839 5840 5840 5841 5842 5843 5844 5845 5845 5846 5847 5848 5849 5850 5851 5851 5852 5853 5854 5855 5855 5856 5857 5857 5858
5822 5823 5824 5825 5826 5826 5827 5828 5828 5829 5830 5831 5831 5832 5832 5833 5834 5835 5836 5837 5837 5838 5839 5840 5841 5842 5843 5844 5845 5846 5847 5847 5848 5849 5850 5851 5852 5852 5853 5854 5855 5856 5857
5818 5819 5820 5821 5822 5823 5823 5824 5825 5825 5826 5827 5827 5828 5829 5830 5830 5831 5832 5833 5834 5835 5836 5837 5838 5839 5840 5841 5842 5843 5844 5845 5845 5846 5848 5849 5849 5850 5851 5852 5853 5854 5854
5814 5815 5816 5817 5818 5819 5819 5820 5820 5821 5822 5822 5823 5824 5825 5826 5826 5827 5828 5829 5830 5831 5832 5833 5834 5835 5836 5838 5839 5840 5841 5842 5843 5844 5845 5846 5847 5847 5848 5850 5850 5851 5852
5809 5810 5812 5813 5813 5814 5815 5815 5816 5817 5817 5818 5819 5819 5820 5821 5822 5823 5824 5825 5826 5827 5828 5829 5830 5831 5832 5834 5835 5836 5837 5838 5839 5840 5841 5842 5843 5844 5845 5847 5848 5849 5850
5805 5806 5807 5808 5808 5809 5809 5810 5811 5812 5812 5813 5813 5814 5815 5816 5817 5818 5819 5820 5821 5822 5823 5824 5825 5827 5828 5829 5831 5832 5833 5834 5835 5836 5838 5839 5840 5841 5842 5843 5844 5845 5846
5800 5801 5801 5802 5803 5803 5804 5805 5805 5806 5807 5807 5808 5808 5809 5810 5812 5813 5814 5815 5816 5817 5818 5819 5820 5821 5823 5824 5826 5827 5828 5829 5831 5832 5833 5835 5836 5837 5838 5839 5841 5842 5843
5794 5795 5795 5796 5797 5797 5798 5799 5799 5800 5800 5801 5802 5803 5803 5804 5805 5807 5808 5809 5810 5811 5812 5813 5815 5816 5817 5819 5820 5821 5823 5824 5826 5827 5828 5830 5831 5833 5834 5835 5837 5838 5839
5788 5789 5789 5790 5790 5791 5791 5792 5792 5793 5793 5794 5795 5796 5797 5798 5799 5800 5801 5802 5804 5805 5806 5807 5809 5810 5812 5813 5814 5816 5817 5819 5820 5822 5823 5825 5826 5828 5829 5831 5832 5833 5835
5782 5782 5783 5783 5784 5784 5784 5784 5785 5785 5786 5787 5787 5788 5789 5790 5792 5793 5794 5795 5797 5798 5799 5801 5802 5804 5805 5807 5808 5810 5811 5813 5814 5816 5818 5819 5821 5822 5824 5826 5827 5829 5830
5775 5775 5776 5776 5776 5776 5777 5777 5777 5778 5778 5779 5780 5781 5782 5783 5784 5785 5786 5788 5789 5790 5792 5793 5795 5796 5798 5800 5802 5803 5805 5807 5808 5810 5811 5813 5815 5817 5818 5820 5822 5823 5825
5768 5768 5768 5768 5768 5769 5769 5769 5770 5770 5771 5771 5772 5773 5774 5775 5776 5777 5778 5780 5781 5782 5784 5786 5787 5789 5791 5793 5794 5796 5798 5800 5801 5803 5805 5807 5808 5810 5812 5814 5816 5818 5819
5760 5760 5760 5760 5760 5761 5761 5761 5762 5762 5763 5763 5764 5765 5766 5767 5768 5769 5770 5772 5773 5774 5776 5778 5779 5781 5782 5785 5786 5788 5790 5792 5794 5796 5797 5799 5801 5803 5805 5808 5809 5811 5813
5753 5752 5752 5752 5752 5752 5753 5753 5753 5753 5754 5754 5755 5757 5758 5759 5760 5761 5762 5763 5765 5766 5768 5769 5771 5773 5774 5776 5778 5780 5782 5784 5786 5788 5790 5792 5794 5796 5798 5800 5802 5804 5806
5744 5744 5743 5743 5743 5743 5744 5744 5744 5745 5745 5746 5747 5748 5749 5750 5751 5752 5753 5754 5756 5757 5758 5760 5762 5763 5765 5767 5769 5771 5773 5775 5777 5779 5781 5784 5786 5788 5790 5793 5795 5797 5799
5735 5735 5734 5734 5734 5734 5734 5735 5735 5736 5736 5737 5738 5739 5740 5741 5742 5743 5744 5745 5746 5747 5749 5751 5752 5754 5756 5758 5760 5761 5763 5765 5767 5770 5772 5775 5777 5779 5782 5784 5786 5789 5791
5725 5725 5724 5724 5724 5724 5724 5724 5725 5726 5726 5727 5728 5729 5730 5731 5732 5733 5734 5735 5736 5737 5739 5740 5742 5744 5746 5748 5750 5752 5754 5756 5758 5760 5762 5765 5768 5770 5772 5775 5777 5780 5782
5714 5714 5714 5714 5714 5714 5714 5714 5714 5715 5716 5717 5718 5719 5719 5720 5722 5723 5724 5725 5726 5727 5728 5730 5732 5734 5736 5738 5740 5742 5743 5745 5747 5750 5752 5755 5757 5760 5762 5765 5768 5770 5773
5703 5703 5702 5702 5702 5702 5702 5703 5703 5704 5705 5706 5707 5708 5709 5710 5711 5712 5713 5715 5716 5716 5718 5719 5721 5723 5725 5727 5729 5731 5732 5734 5736 5739 5741 5744 5746 5749 5752 5754 5757 5760 5763
5691 5691 5691 5691 5690 5690 5690 5691 5692 5693 5694 5695 5696 5697 5698 5699 5700 5701 5703 5704 5705 5706 5707 5708 5709 5711 5713 5715 5717 5719 5721 5723 5725 5727 5730 5732 5734 5737 5740 5743 5746 5750 5753
5679 5679 5678 5678 5678 5678 5678 5679 5680 5681 5682 5682 5684 5685 5686 5688 5689 5690 5691 5692 5693 5694 5695 5697 5698 5699 5701 5703 5705 5707 5709 5712 5714 5716 5718 5721 5723 5725 5728 5731 5735 5738 5741
5667 5666 5666 5666 5666 5666 5666 5667 5668 5669 5670 5671 5672 5673 5674 5675 5677 5678 5679 5680 5681 5682 5683 5684 5686 5687 5689 5691 5692 5694 5697 5699 5702 5704 5706 5709 5711 5713 5716 5719 5723 5726 5729
5655 5654 5654 5653 5653 5653 5654 5654 5655 5656 5657 5658 5660 5661 5662 5662 5663 5665 5666 5667 5668 5669 5671 5672 5673 5675 5676 5678 5679 5681 5684 5686 5689 5692 5694 5696 5698 5701 5704 5707 5710 5714 5717
5643 5642 5641 5641 5641 5641 5641 5642 5643 5644 5645 5646 5647 5649 5650 5650 5650 5651 5653 5654 5655 5656 5658 5659 5660 5662 5663 5665 5666 5668 5670 5672 5675 5678 5681 5683 5686 5688 5691 5694 5697 5701 5704
5631 5630 5629 5629 5629 5628 5628 5629 5630 5631 5632 5633 5634 5635 5636 5637 5637 5638 5639 5641 5642 5643 5644 5645 5646 5648 5650 5651 5653 5655 5657 5659 5662 5664 5667 5670 5672 5675 5677 5680 5683 5687 5690